Aswan, Egypt

6:38 PM EET on July 27, 2016 (GMT +0200)
Aswan International

Weather History for HESN - April, 2014

Change the Weather History Date:

Thursday, April 10, 2014

  Actual Average Record
Temperature  
Mean Temperature 78 °F -  
Max Temperature 85 °F 95 °F 109 °F (2016)
Min Temperature 72 °F 70 °F 59 °F (1997)
Cooling Degree Days 14    
Growing Degree Days 28 (Base 50)    
Moisture  
Dew Point 31 °F    
Average Humidity 16    
Maximum Humidity 29    
Minimum Humidity 5    
Precipitation  
Precipitation 0.00 in 0.00 in - ()
Sea Level Pressure  
Sea Level Pressure 29.92 in    
Wind  
Wind Speed 11 mph ()    
Max Wind Speed 18 mph    
Max Gust Speed -    
Visibility 5.6 miles    
Events      
Averages and records for this station are not official NWS values.
T = Trace of Precipitation, MM = Missing Value Source: Averaged Metar Reports

Daily Weather History Graph

Daily Weather History Graph

Search for Another Location

Airport or City:

Trip Planner

Search our weather history database for the weather conditions in past years. The results will help you decide how hot, cold, wet, or windy it might be!

Date:

Astronomy

Apr. 10, 2014 Rise Set
Actual Time 5:32 AM EET 6:08 PM EET
Civil Twilight 5:09 AM EET 6:31 PM EET
Nautical Twilight 4:42 AM EET 6:58 PM EET
Astronomical Twilight 4:15 AM EET 7:25 PM EET
Moon 2:01 PM EET (4/10) 2:13 AM EET (4/10)
Length of Visible Light 13h 21m
Length of Day
12h 35m
Waxing Gibbous, 77% of the Moon is Illuminated
Apr 10
Waxing Gibbous
Apr 15
Full
Apr 22
Last Quarter
Apr 29
New
May 7
First Quarter

Hourly Weather History & Observations

Time (EET) Temp. Dew Point Humidity Pressure Visibility Wind Dir Wind Speed Gust Speed Precip Events Conditions
12:00 AM 80.6 °F 37.4 °F 21% 29.92 in 5.0 mi North 11.5 mph - N/A   Unknown
1:00 AM 78.8 °F 37.4 °F 23% 29.89 in 5.0 mi North 18.4 mph - N/A   Unknown
2:00 AM 77 °F 38 °F 15% 29.87 in 5 mi NNW 13.8 mph - -   Blowing Sand
2:00 AM 77.0 °F 37.4 °F 24% 29.89 in 5.0 mi NNW 13.8 mph - N/A   Unknown
4:00 AM 75.2 °F 39.2 °F 27% 29.89 in - NNW 12.7 mph - N/A   Clear
5:00 AM 74 °F 33 °F 13% 29.89 in 6 mi North 12.7 mph - -  
5:00 AM 73.4 °F 39.2 °F 29% 29.92 in - North 12.7 mph - N/A   Clear
6:00 AM 73.4 °F 39.2 °F 29% 29.92 in - NNW 13.8 mph - N/A   Clear
7:00 AM 73.4 °F 37.4 °F 27% 29.95 in - North 11.5 mph - N/A   Clear
8:00 AM 75 °F 38 °F 16% 29.94 in 6 mi North 12.7 mph - -   Mostly Cloudy
8:00 AM 75.2 °F 37.4 °F 25% 29.95 in - North 12.7 mph - N/A   Clear
9:00 AM 77.0 °F 33.8 °F 21% 29.95 in - North 17.3 mph - N/A   Clear
10:00 AM 78.8 °F 32.0 °F 18% 29.95 in - North 17.3 mph - N/A   Clear
11:00 AM 81 °F 32 °F 9% 29.92 in 6 mi North 13.8 mph - -   Mostly Cloudy
11:00 AM 80.6 °F 32.0 °F 17% 29.95 in - North 13.8 mph - N/A   Clear
12:00 PM 82.4 °F 28.4 °F 14% 29.95 in - NNE 13.8 mph - N/A   Clear
1:00 PM 84.2 °F 26.6 °F 12% 29.92 in - North 10.4 mph - N/A   Clear
2:00 PM 85 °F 27 °F 5% 29.87 in 6 mi North 10.4 mph - -   Mostly Cloudy
2:00 PM 84.2 °F 26.6 °F 12% 29.89 in - North 10.4 mph - N/A   Clear
3:00 PM 86.0 °F 26.6 °F 12% 29.89 in - North 8.1 mph - N/A   Clear
4:00 PM 84.2 °F 26.6 °F 12% 29.89 in - NNW 6.9 mph - N/A   Clear
5:00 PM 83 °F 27 °F 6% 29.88 in 6 mi NNW 6.9 mph - -   Mostly Cloudy
5:00 PM 84.2 °F 26.6 °F 12% 29.92 in - NNW 6.9 mph - N/A   Clear
6:00 PM 82.4 °F 24.8 °F 12% 29.92 in - NW 9.2 mph - N/A   Clear
7:00 PM 80.6 °F 24.8 °F 13% 29.92 in - NNW 4.6 mph - N/A   Clear
8:00 PM 79 °F 24 °F 6% 29.93 in 6 mi NNW 4.6 mph - -   Partly Cloudy
8:00 PM 78.8 °F 23.0 °F 13% 29.95 in - NNW 4.6 mph - N/A   Clear
9:00 PM 77.0 °F 24.8 °F 14% 29.95 in - NNW 5.8 mph - N/A   Clear
10:00 PM 77.0 °F 26.6 °F 16% 29.95 in - NNW 5.8 mph - N/A   Clear
11:00 PM 75 °F 28 °F 9% 29.94 in 6 mi North 5.8 mph - -  
11:00 PM 75.2 °F 28.4 °F 18% 29.95 in - North 5.8 mph - N/A   Clear